Overview Statistics Trail Chart Weather Telemetry Raw packets
 

This is the latest recevied weather packets stored in our database for station/object WW5JC. If no packets are shown the sender has not sent any weather packets the latest 10 day(s).

<< 38 39 40 41 42 43 44 >>
Time Temp. Humidity Pressure Rain* Wind** Luminosity Snow
1788368369 32.78° C 59% 1018.9 hPa 0 mm - 644 W/m² -
1788368068 32.78° C 59% 1018.7 hPa 0 mm - 605 W/m² -
1788367768 32.78° C 59% 1018.9 hPa 0 mm - 609 W/m² -
1788367463 32.78° C 60% 1018.7 hPa 0 mm - 590 W/m² -
1788367162 32.22° C 60% 1019.1 hPa 0 mm - 583 W/m² -
1788366858 32.22° C 61% 1019 hPa 0 mm - 574 W/m² -
1788366555 32.22° C 61% 1019 hPa 0 mm - 564 W/m² -
1788366251 32.22° C 61% 1019.2 hPa 0 mm - 557 W/m² -
1788365946 32.22° C 61% 1019.1 hPa 0 mm - 546 W/m² -
1788365641 31.67° C 62% 1019.1 hPa 0 mm - 535 W/m² -
1788365337 31.67° C 64% 1019.1 hPa 0 mm - 528 W/m² -
1788365033 31.67° C 65% 1019.1 hPa 0 mm - 512 W/m² -
1788364731 31.67° C 64% 1019 hPa 0 mm - 506 W/m² -
1788364430 30.56° C 68% 1019.1 hPa 0 mm - 491 W/m² -
1788364125 31.11° C 66% 1019.1 hPa 0 mm - 479 W/m² -
1788363821 31.11° C 69% 1019 hPa 0 mm - 470 W/m² -
1788363519 31.11° C 69% 1018.8 hPa 0 mm - 451 W/m² -
1788363219 30.56° C 70% 1018.9 hPa 0 mm - 441 W/m² -
1788362915 30.56° C 70% 1018.8 hPa 0 mm - 432 W/m² -
1788362610 30.56° C 72% 1019 hPa 0 mm - 421 W/m² -
1788362306 30° C 71% 1018.9 hPa 0 mm - 406 W/m² -
1788362000 30° C 73% 1018.7 hPa 0 mm - 391 W/m² -
1788361690 30° C 73% 1018.7 hPa 0 mm - 363 W/m² -
1788361386 30° C 73% 1018.7 hPa 0 mm - 364 W/m² -
1788361085 29.44° C 74% 1018.7 hPa 0 mm - 350 W/m² -

* Rain latest hour (hover to see other rain measurements)
** Current wind speed in m/s (hover to see current wind gust speed)